Find Meteor-2

NORAD ID: 14452 Int'l Des: 1983-109 Owner: GUKOS/GMS Country: SU operational
LEOCIRCULARPOLAR

当前视图

正在加载3D地球...

About Meteor-2

Meteor-2 (NORAD 14452) is a satellite launched Oct 28, 1983 by GUKOS/GMS of SU. It operates in LEO, CIRCULAR, POLAR orbit with a mass of 1500.00 kg.

即将过境

Passes for default location (London). Set your location on the main map for personalized predictions.

高度历史

Loading altitude history...

两行轨道根数

1 14452U 83109A 26194.93226112 .00000094 00000-0 31384-4 0 9991
2 14452 81.1629 329.9765 0090933 124.6662 236.3132 14.27284122221230
Epoch: Jul 13, 2026 • Age: 15 hours

当前状态

高度 825.7 km
远地点 / 近地点 N/A
速度 7.43 km/s
星下点 11.80°N, 164.83°W
发射日期 Oct 28, 1983
运行时间 42.7 years
类型 other

技术详情

分类 Payload
质量 1500.00 kg
干质量 1500.00 kg
总质量 1500.00 kg
长度 4.50 m
直径 1.40 m
跨度 4.50 m
形状 Cyl + 2 Pan
制造商 VNIEM
平台类型 Meteor-2
阶段状态 In Orbit
所有者/国家 GUKOS/GMS/SU

Most Searched